GW1511 Weather Reports


time (UTC)temp
F
wind
direction
speed
knots
gust
knots
rain 1hr
in
rain 24hr
in
rain mn
in
humidity
%
barometer
mb
20260906112030 87 134 0.9 5.2 0.00 0.00 0.00 63 1019.4
20260906111530 88 119 0.9 4.3 0.00 0.00 0.00 60 1019.3
20260906111028 87 103 0.9 3.5 0.00 0.00 0.00 64 1019.5
20260906110528 86 131 1.7 3.5 0.00 0.00 0.00 63 1019.5
20260906110028 86 207 1.7 4.3 0.00 0.00 0.00 64 1019.5
20260906105527 86 86 0.9 4.3 0.00 0.00 0.00 64 1019.5
20260906105031 86 360 0.9 4.3 0.00 0.00 0.00 61 1019.5
20260906104530 86 99 1.7 4.3 0.00 0.00 0.00 61 1019.6
20260906104027 86 154 0.9 3.5 0.00 0.00 0.00 62 1019.6
20260906103527 86 63 1.7 3.5 0.00 0.00 0.00 64 1019.6
20260906103025 87 98 0.9 4.3 0.00 0.00 0.00 60 1019.6
20260906102524 86 130 0.0 4.3 0.00 0.00 0.00 61 1019.7
20260906102028 86 355 0.9 5.2 0.00 0.00 0.00 62 1019.7
20260906101523 86 126 0.9 3.5 0.00 0.00 0.00 60 1019.7
20260906101021 86 128 0.9 5.2 0.00 0.00 0.00 61 1019.7
20260906100521 86 149 1.7 6.1 0.00 0.00 0.00 61 1019.6
20260906100021 86 39 0.9 6.1 0.00 0.00 0.00 62 1019.7
20260906095519 85 73 0.9 7.0 0.00 0.00 0.00 61 1019.8
20260906095018 85 98 1.7 7.0 0.00 0.00 0.00 61 1019.8
20260906094518 85 40 1.7 6.1 0.00 0.00 0.00 63 1019.9
20260906094016 85 89 1.7 5.2 0.00 0.00 0.00 62 1019.9
20260906093518 85 45 1.7 6.1 0.00 0.00 0.00 63 1019.9
20260906093014 85 57 1.7 6.1 0.00 0.00 0.00 63 1019.9
20260906092514 85 83 1.7 6.1 0.00 0.00 0.00 63 1019.9
20260906092016 84 183 0.9 5.2 0.00 0.00 0.00 64 1019.9
20260906091524 84 129 1.7 5.2 0.00 0.00 0.00 63 1019.9
20260906091010 84 5 1.7 7.8 0.00 0.00 0.00 64 1019.9
20260906090509 84 30 2.6 7.8 0.00 0.00 0.00 63 1019.9
20260906090008 84 355 0.9 5.2 0.00 0.00 0.00 65 1019.9
20260906085509 83 321 1.7 7.0 0.00 0.00 0.00 65 1019.9
20260906085006 83 5 1.7 7.0 0.00 0.00 0.00 63 1019.9
20260906084505 83 51 0.9 5.2 0.00 0.00 0.00 64 1019.9
20260906084007 82 126 1.7 7.0 0.00 0.00 0.00 64 1019.9
20260906083502 82 119 1.7 7.0 0.00 0.00 0.00 64 1019.9
20260906083101 83 77 0.9 6.1 0.00 0.00 0.00 64 1019.9
20260906082559 82 67 1.7 8.7 0.00 0.00 0.00 65 1019.8
20260906082058 82 21 2.6 8.7 0.00 0.00 0.00 65 1019.9
20260906081607 81 65 1.7 6.1 0.00 0.00 0.00 65 1019.9
20260906081057 82 19 1.7 7.0 0.00 0.00 0.00 66 1019.8
20260906080554 81 5 1.7 7.8 0.00 0.00 0.00 65 1019.8
20260906080053 80 355 2.6 10.4 0.00 0.00 0.00 66 1019.8
20260906075552 80 86 3.5 10.4 0.00 0.00 0.00 65 1019.8
20260906075050 80 96 1.7 7.8 0.00 0.00 0.00 67 1019.8
20260906074607 80 40 3.5 7.8 0.00 0.00 0.00 69 1019.7
20260906074048 79 109 2.6 8.7 0.00 0.00 0.00 69 1019.7
20260906073547 79 355 4.3 9.6 0.00 0.00 0.00 69 1019.6
20260906073045 79 14 4.3 9.6 0.00 0.00 0.00 69 1019.5
20260906072544 79 17 3.5 8.7 0.00 0.00 0.00 69 1019.5
20260906072045 79 5 1.7 7.0 0.00 0.00 0.00 70 1019.5
20260906071541 78 346 2.6 7.0 0.00 0.00 0.00 71 1019.5
20260906071040 78 15 2.6 7.8 0.00 0.00 0.00 71 1019.5
20260906070538 78 360 2.6 6.1 0.00 0.00 0.00 71 1019.4
20260906070037 78 11 1.7 5.2 0.00 0.00 0.00 71 1019.4
20260906065537 77 16 0.0 4.3 0.00 0.00 0.00 73 1019.5
20260906065037 77 12 1.7 5.2 0.00 0.00 0.00 73 1019.4
20260906064534 77 9 1.7 5.2 0.00 0.00 0.00 72 1019.3
20260906064032 76 66 1.7 4.3 0.00 0.00 0.00 73 1019.3
20260906063532 76 11 1.7 4.3 0.00 0.00 0.00 74 1019.3
20260906063030 76 43 0.9 3.5 0.00 0.00 0.00 74 1019.2
20260906062529 76 17 0.9 2.6 0.00 0.00 0.00 75 1019.2
20260906062030 75 61 0.9 3.5 0.00 0.00 0.00 76 1019.1
20260906061526 75 11 1.7 4.3 0.00 0.00 0.00 76 1019.0
20260906061024 74 34 1.7 4.3 0.00 0.00 0.00 76 1018.9
20260906060523 74 23 1.7 4.3 0.00 0.00 0.00 77 1018.8
20260906060027 74 26 0.0 3.5 0.00 0.00 0.00 78 1018.7
20260906055520 74 5 0.9 4.3 0.00 0.00 0.00 78 1018.7
20260906055019 73 17 1.7 4.3 0.00 0.00 0.00 78 1018.7
20260906054522 73 5 1.7 4.3 0.00 0.00 0.00 78 1018.6
20260906054017 73 360 0.9 4.3 0.00 0.00 0.00 78 1018.5
20260906053516 73 15 0.9 5.2 0.00 0.00 0.00 79 1018.4
20260906053021 73 32 0.9 5.2 0.00 0.00 0.00 79 1018.3
20260906052514 73 34 0.9 5.2 0.00 0.00 0.00 79 1018.3
20260906052014 73 26 1.7 5.2 0.00 0.00 0.00 79 1018.3
20260906051516 73 348 1.7 4.3 0.00 0.00 0.00 79 1018.3
20260906051012 73 360 1.7 7.0 0.00 0.00 0.00 78 1018.3
20260906050512 73 38 1.7 7.0 0.00 0.00 0.00 78 1018.2
20260906050028 73 43 1.7 5.2 0.00 0.00 0.00 78 1018.2
20260906045510 73 58 0.9 5.2 0.00 0.00 0.00 78 1018.1
20260906045009 73 13 1.7 5.2 0.00 0.00 0.00 78 1018.1
20260906044512 73 40 1.7 4.3 0.00 0.00 0.00 78 1018.1
20260906044011 73 69 1.7 8.7 0.00 0.00 0.00 78 1017.9
20260906043508 73 29 1.7 8.7 0.00 0.00 0.00 78 1017.9
20260906043008 73 5 2.6 5.2 0.00 0.00 0.00 78 1017.9
20260906042506 73 5 1.7 4.3 0.00 0.00 0.00 79 1017.9
20260906042006 73 14 0.9 4.3 0.00 0.00 0.00 79 1017.8
20260906041512 73 20 1.7 4.3 0.00 0.00 0.00 79 1017.8
20260906041006 73 17 1.7 4.3 0.00 0.00 0.00 79 1017.8
20260906040508 73 22 0.9 3.5 0.00 0.00 0.00 79 1017.8
20260906040005 73 30 0.9 4.3 0.00 0.00 0.00 79 1017.7
20260906035504 73 21 0.9 5.2 0.00 0.00 0.00 79 1017.6
20260906035003 73 336 1.7 7.0 0.00 0.00 0.00 79 1017.5
20260906034503 73 24 2.6 7.0 0.00 0.00 0.00 80 1017.5
20260906034002 74 23 1.7 5.2 0.00 0.00 0.00 80 1017.5
20260906033502 74 360 1.7 5.2 0.00 0.00 0.00 80 1017.4
20260906033101 74 36 0.9 7.0 0.00 0.00 0.00 80 1017.4
20260906032600 74 29 0.9 7.0 0.00 0.00 0.00 80 1017.4
20260906032100 74 25 2.6 5.2 0.00 0.00 0.00 80 1017.3
20260906031604 74 19 0.9 5.2 0.00 0.00 0.00 80 1017.3
20260906031100 74 24 1.7 5.2 0.00 0.00 0.00 80 1017.3
20260906030559 74 38 0.9 5.2 0.00 0.00 0.00 81 1017.3
20260906030058 74 93 0.9 4.3 0.00 0.00 0.00 81 1017.2
20260906025558 74 5 0.9 4.3 0.00 0.00 0.00 82 1017.2
20260906025058 74 11 0.9 5.2 0.00 0.00 0.00 83 1017.2
20260906024558 74 51 0.9 5.2 0.00 0.00 0.00 84 1017.1
20260906024056 74 14 1.7 5.2 0.00 0.00 0.00 85 1017.1
20260906023556 74 26 0.9 4.3 0.00 0.00 0.00 86 1017.1
20260906023055 74 40 0.9 5.2 0.00 0.00 0.00 87 1017.1
20260906022554 74 117 0.9 5.2 0.00 0.00 0.00 88 1017.1
20260906022056 74 51 0.9 7.8 0.00 0.00 0.00 88 1017.1
20260906021554 74 15 1.7 7.8 0.00 0.00 0.00 89 1017.0
20260906021054 75 19 3.5 7.0 0.00 0.00 0.00 89 1017.1
20260906020552 75 5 2.6 5.2 0.00 0.00 0.00 89 1017.0
20260906020100 75 11 2.6 7.0 0.00 0.00 0.00 89 1017.0
20260906015552 75 360 2.6 5.2 0.00 0.00 0.00 89 1017.0
20260906015053 75 360 1.7 7.8 0.00 0.00 0.00 89 1017.0
20260906014552 75 23 2.6 7.8 0.00 0.00 0.00 89 1017.0
20260906014052 75 17 1.7 7.0 0.00 0.00 0.00 89 1017.0
20260906013555 75 10 1.7 7.0 0.00 0.00 0.00 89 1017.0
20260906013051 75 327 2.6 7.8 0.00 0.00 0.00 89 1017.0
20260906012551 75 22 1.7 7.8 0.00 0.00 0.00 89 1016.9
20260906012050 75 9 2.6 5.2 0.00 0.00 0.00 90 1017.0
20260906011550 75 360 2.6 7.0 0.00 0.00 0.00 90 1017.1
20260906011049 75 355 1.7 7.0 0.00 0.00 0.00 90 1016.9
20260906010549 76 51 1.7 7.0 0.00 0.00 0.00 90 1016.9
20260906010049 76 24 2.6 7.0 0.00 0.00 0.00 90 1016.8
20260906005549 76 15 1.7 7.0 0.00 0.00 0.00 90 1016.8
20260906005050 76 15 2.6 7.0 0.00 0.00 0.00 90 1016.8
20260906004549 76 17 2.6 7.0 0.00 0.00 0.00 90 1016.8
20260906004048 76 5 2.6 7.0 0.00 0.00 0.00 91 1016.8
20260906003549 76 22 1.7 5.2 0.00 0.00 0.00 91 1016.8
20260906003048 76 348 1.7 7.8 0.00 0.00 0.00 91 1016.8
20260906002548 76 360 1.7 7.8 0.00 0.00 0.00 91 1016.8
20260906002048 76 340 2.6 5.2 0.00 0.00 0.00 91 1016.8
20260906001547 76 26 1.7 4.3 0.00 0.00 0.00 90 1016.9
20260906001048 76 34 0.9 3.5 0.00 0.00 0.00 90 1016.9
20260906000547 76 5 0.9 3.5 0.00 0.00 0.00 90 1017.0
20260906000047 76 9 0.9 4.3 0.00 0.00 0.00 90 1017.0
20260905235546 76 5 1.7 5.2 0.00 0.00 0.00 90 1017.0
20260905235048 75 22 1.7 7.0 0.00 0.00 0.00 90 1017.0
20260905234546 75 26 0.9 7.0 0.00 0.00 0.00 90 1016.9
20260905234045 75 40 1.7 4.3 0.00 0.00 0.00 90 1016.9
20260905233545 76 24 0.9 3.5 0.00 0.00 0.00 90 1016.9
20260905233048 75 32 0.9 3.5 0.00 0.00 0.00 90 1016.8
20260905232544 75 16 1.7 2.6 0.00 0.00 0.00 90 1016.7
20260905232044 75 17 0.9 2.6 0.00 0.00 0.00 90 1016.7
20260905231544 75 26 0.0 0.9 0.00 0.00 0.00 90 1016.7
20260905231043 75 26 0.0 2.6 0.00 0.00 0.00 90 1016.7
20260905230543 75 27 0.0 2.6 0.00 0.00 0.00 90 1016.6
20260905230049 75 26 0.0 1.7 0.00 0.00 0.00 91 1016.6
20260905225541 75 26 0.0 1.7 0.00 0.00 0.00 91 1016.5
20260905225043 75 27 0.0 2.6 0.00 0.00 0.00 91 1016.5
20260905224558 75 28 0.0 2.6 0.00 0.00 0.00 91 1016.4
20260905224040 75 32 0.9 3.5 0.00 0.00 0.00 91 1016.5
20260905223540 75 26 0.9 2.6 0.00 0.00 0.00 91 1016.4
20260905223039 75 38 0.0 3.5 0.00 0.00 0.00 91 1016.3
20260905222539 75 40 0.9 4.3 0.00 0.00 0.00 91 1016.3
20260905222038 75 23 1.7 4.3 0.00 0.00 0.00 91 1016.3
20260905221552 75 85 0.0 1.7 0.00 0.00 0.00 91 1016.3
20260905221038 75 85 0.0 1.7 0.00 0.00 0.00 91 1016.3
20260905220537 76 86 0.0 1.7 0.00 0.00 0.00 91 1016.2
20260905220040 76 93 0.0 1.7 0.00 0.00 0.00 91 1016.2
20260905215536 76 121 0.0 0.9 0.00 0.00 0.00 91 1016.2
20260905215035 76 121 0.0 0.9 0.00 0.00 0.00 90 1016.1
20260905214534 76 121 0.0 0.9 0.00 0.00 0.00 90 1016.1
20260905214034 76 121 0.0 1.7 0.00 0.00 0.00 90 1015.9
20260905213534 76 121 0.0 1.7 0.00 0.00 0.00 89 1015.8
20260905213033 76 121 0.0 0.0 0.00 0.00 0.00 88 1015.8
20260905212533 77 121 0.0 0.0 0.00 0.00 0.00 88 1015.7
20260905212032 77 121 0.0 0.0 0.00 0.00 0.00 88 1015.7
20260905211532 77 121 0.0 0.0 0.00 0.00 0.00 88 1015.7
20260905211031 77 121 0.0 0.0 0.00 0.00 0.00 87 1015.7
20260905210532 78 121 0.0 0.0 0.00 0.00 0.00 87 1015.6
20260905210031 78 121 0.0 0.0 0.00 0.00 0.00 86 1015.6
20260905205531 78 121 0.0 0.9 0.00 0.00 0.00 85 1015.6
20260905205031 79 121 0.0 1.7 0.00 0.00 0.00 84 1015.6
20260905204531 79 127 0.0 1.7 0.00 0.00 0.00 84 1015.5
20260905204029 79 160 0.0 2.6 0.00 0.00 0.00 84 1015.5
20260905203529 79 164 0.0 4.3 0.00 0.00 0.00 84 1015.4
20260905203031 79 157 0.9 5.2 0.00 0.00 0.00 84 1015.4
20260905202529 80 142 0.9 5.2 0.00 0.00 0.00 84 1015.4
20260905202027 80 136 0.9 3.5 0.00 0.00 0.00 84 1015.3
20260905201527 80 130 0.0 3.5 0.00 0.00 0.00 84 1015.3
20260905201026 80 140 0.9 4.3 0.00 0.00 0.00 84 1015.2
20260905200528 80 117 1.7 4.3 0.00 0.00 0.00 84 1015.2
20260905200026 80 144 0.9 5.2 0.00 0.00 0.00 84 1015.1
20260905195524 80 157 1.7 5.2 0.00 0.00 0.00 84 1015.1
20260905195027 80 115 1.7 3.5 0.00 0.00 0.00 83 1015.1
20260905194524 81 161 0.9 6.1 0.00 0.00 0.00 82 1015.1
20260905194025 81 110 1.7 6.1 0.00 0.00 0.00 81 1015.0
20260905193522 81 155 0.9 5.2 0.00 0.00 0.00 79 1014.9
20260905193026 81 112 1.7 5.2 0.00 0.00 0.00 77 1014.9
20260905192521 82 143 1.7 4.3 0.00 0.00 0.00 75 1014.7
20260905192020 82 107 0.9 5.2 0.00 0.00 0.00 72 1014.7
20260905191520 82 146 1.7 5.2 0.00 0.00 0.00 70 1014.6
20260905191023 82 138 1.7 6.1 0.00 0.00 0.00 68 1014.5
20260905190523 81 167 0.0 4.3 0.00 0.00 0.00 67 1014.4
20260905190020 81 269 0.0 0.0 0.00 0.00 0.00 68 1014.4
20260905185519 81 269 0.0 0.0 0.00 0.00 0.00 67 1014.3
20260905185020 81 269 0.0 0.0 0.00 0.00 0.00 67 1014.2
20260905184520 81 269 0.0 0.0 0.00 0.00 0.00 67 1014.1
20260905184020 81 269 0.0 0.0 0.00 0.00 0.00 66 1014.0
20260905183520 81 269 0.0 0.0 0.00 0.00 0.00 67 1014.0
20260905183018 81 269 0.0 0.0 0.00 0.00 0.00 67 1013.8
20260905182521 81 269 0.0 0.0 0.00 0.00 0.00 67 1013.8
20260905182019 82 269 0.0 0.0 0.00 0.00 0.00 67 1013.7
20260905181518 82 269 0.0 0.0 0.00 0.00 0.00 67 1013.6
20260905181018 82 269 0.0 0.0 0.00 0.00 0.00 67 1013.5
20260905180519 82 269 0.0 0.0 0.00 0.00 0.00 67 1013.5
20260905180018 83 269 0.0 0.0 0.00 0.00 0.00 67 1013.5
20260905175518 83 269 0.0 0.0 0.00 0.00 0.00 65 1013.5
20260905175018 84 269 0.0 0.0 0.00 0.00 0.00 66 1013.5
20260905174524 84 269 0.0 0.0 0.00 0.00 0.00 65 1013.4
20260905174022 84 269 0.0 0.0 0.00 0.00 0.00 65 1013.4
20260905173518 84 269 0.0 0.0 0.00 0.00 0.00 65 1013.3
20260905173025 85 269 0.0 0.0 0.00 0.00 0.00 64 1013.3
20260905172517 85 269 0.0 0.0 0.00 0.00 0.00 64 1013.3
20260905172017 85 269 0.0 0.0 0.00 0.00 0.00 64 1013.2
20260905171529 85 269 0.0 0.0 0.00 0.00 0.00 67 1013.2
20260905171016 86 269 0.0 0.0 0.00 0.00 0.00 64 1013.2
20260905170517 87 269 0.0 0.0 0.00 0.00 0.00 62 1013.1
20260905170017 88 269 0.0 0.9 0.00 0.00 0.00 60 1013.1
20260905165520 88 269 0.0 0.9 0.00 0.00 0.00 58 1013.1
20260905165016 89 269 0.0 1.7 0.00 0.00 0.00 60 1013.1
20260905164516 90 269 0.0 1.7 0.00 0.00 0.00 55 1013.0
20260905164015 90 269 0.0 1.7 0.00 0.00 0.00 54 1013.0
20260905163516 90 269 0.0 1.7 0.00 0.00 0.00 52 1013.0
20260905163016 91 279 0.0 0.9 0.00 0.00 0.00 59 1013.0
20260905162518 90 279 0.0 1.7 0.00 0.00 0.00 53 1013.0
20260905162015 90 269 0.0 2.6 0.00 0.00 0.00 55 1012.9
20260905161515 91 268 0.0 2.6 0.00 0.00 0.00 52 1012.9
20260905161015 91 248 0.0 2.6 0.00 0.00 0.00 51 1012.9
20260905160514 91 246 0.0 2.6 0.00 0.00 0.00 52 1012.9
20260905160019 91 252 0.0 0.9 0.00 0.00 0.00 50 1012.9
20260905155514 91 290 0.0 1.7 0.00 0.00 0.00 54 1012.9
20260905155018 91 290 0.0 1.7 0.00 0.00 0.00 55 1012.8
20260905154514 91 290 0.0 3.5 0.00 0.00 0.00 53 1012.8
20260905154014 92 249 0.9 3.5 0.00 0.00 0.00 50 1012.7
20260905153514 92 198 0.0 1.7 0.00 0.00 0.00 51 1012.7
20260905153020 92 169 0.0 1.7 0.00 0.00 0.00 51 1012.8
20260905152513 91 272 0.0 2.6 0.00 0.00 0.00 50 1012.7
20260905152013 91 324 0.0 5.2 0.00 0.00 0.00 53 1012.6
20260905151513 90 259 1.7 5.2 0.00 0.00 0.00 52 1012.7
20260905151012 90 286 1.7 5.2 0.00 0.00 0.00 53 1012.7
20260905150512 91 323 1.7 3.5 0.00 0.00 0.00 54 1012.7
20260905150012 91 282 0.0 1.7 0.00 0.00 0.00 52 1012.7
20260905145512 91 286 0.0 1.7 0.00 0.00 0.00 49 1012.7
20260905145014 91 286 0.9 2.6 0.00 0.00 0.00 49 1012.8
20260905144513 92 229 0.9 6.1 0.00 0.00 0.00 50 1012.9
20260905144014 92 265 2.6 7.8 0.00 0.00 0.00 50 1013.0
20260905143511 91 232 0.9 7.8 0.00 0.00 0.00 51 1012.9
20260905143011 92 219 0.9 3.5 0.00 0.00 0.00 50 1012.9
20260905142510 91 302 0.9 5.2 0.00 0.00 0.00 49 1013.0
20260905142010 91 274 1.7 5.2 0.00 0.00 0.00 50 1013.0
20260905141510 91 286 1.7 4.3 0.00 0.00 0.00 50 1013.0
20260905141012 92 209 0.0 5.2 0.00 0.00 0.00 51 1013.0
20260905140509 91 245 1.7 6.1 0.00 0.00 0.00 51 1013.1
20260905140010 91 268 0.9 3.5 0.00 0.00 0.00 53 1013.1
20260905135508 90 327 0.9 4.3 0.00 0.00 0.00 53 1013.1
20260905135009 91 234 0.0 5.2 0.00 0.00 0.00 52 1013.2
20260905134508 90 302 2.6 5.2 0.00 0.00 0.00 52 1013.4
20260905134011 91 221 1.7 7.0 0.00 0.00 0.00 51 1013.3
20260905133506 91 317 1.7 7.0 0.00 0.00 0.00 55 1013.3
20260905133010 91 249 1.7 7.0 0.00 0.00 0.00 53 1013.4
20260905132507 91 219 2.6 7.0 0.00 0.00 0.00 51 1013.4
20260905132006 91 238 2.6 6.1 0.00 0.00 0.00 52 1013.5
20260905131504 90 266 0.9 4.3 0.00 0.00 0.00 55 1013.5
20260905131004 90 309 1.7 6.1 0.00 0.00 0.00 53 1013.5
20260905130505 90 252 1.7 6.1 0.00 0.00 0.00 52 1013.6
20260905130004 90 306 0.9 6.1 0.00 0.00 0.00 53 1013.7
20260905125504 90 322 2.6 7.8 0.00 0.00 0.00 53 1013.7
20260905125003 90 302 1.7 5.2 0.00 0.00 0.00 53 1013.9
20260905124503 90 234 1.7 4.3 0.00 0.00 0.00 53 1013.9
20260905124003 89 310 0.9 4.3 0.00 0.00 0.00 53 1013.9
20260905123503 89 346 1.7 7.0 0.00 0.00 0.00 55 1014.0
20260905123001 90 275 3.5 7.0 0.00 0.00 0.00 52 1014.0
20260905122505 89 321 1.7 6.1 0.00 0.00 0.00 55 1014.0
20260905122003 90 208 2.6 6.1 0.00 0.00 0.00 52 1014.0
20260905121502 89 265 2.6 7.0 0.00 0.00 0.00 52 1014.1
20260905121003 89 305 3.5 7.0 0.00 0.00 0.00 57 1014.2
20260905120502 90 309 1.7 8.7 0.00 0.00 0.00 53 1014.2
20260905120118 90 221 1.7 8.7 0.00 0.00 0.00 54 1014.1
20260905115600 89 233 3.5 8.7 0.00 0.00 0.00 55 1014.1
20260905115103 89 207 1.7 7.0 0.00 0.00 0.00 55 1014.3
20260905114559 89 330 1.7 6.1 0.00 0.00 0.00 55 1014.3
20260905114059 89 293 2.6 7.8 0.00 0.00 0.00 54 1014.2
20260905113558 89 287 3.5 7.8 0.00 0.00 0.00 56 1014.2
20260905113057 88 320 3.5 7.8 0.00 0.00 0.00 58 1014.3
20260905112556 88 273 1.7 7.0 0.00 0.00 0.00 59 1014.3